Theta_e
306 303 303 303 304 307 307 307 306 305 307 305 305 305 304 304 309 310 308 307 306 305 305 305 304 303 302 301 300 298 297 297 296 295 295 296 296 296 297 298 299 301 304 305
306 305 305 305 305 307 307 307 305 305 305 305 305 304 302 302 308 309 307 306 305 305 304 304 303 302 301 300 298 297 296 296 295 294 294 295 295 296 296 298 299 301 303 306
305 306 308 307 308 308 307 306 305 305 304 304 303 302 303 310 309 308 307 305 305 304 303 302 302 301 300 299 296 296 295 295 295 294 294 294 295 296 297 298 299 300 301 303
304 306 307 308 308 307 306 306 306 305 303 303 303 301 302 311 310 308 306 304 303 303 302 301 300 300 299 297 295 295 295 295 294 293 293 294 294 295 296 297 298 299 301 302
307 309 307 308 308 306 306 306 305 305 302 302 303 301 300 311 311 308 305 304 303 302 301 300 299 299 298 295 294 293 294 294 294 293 293 293 294 295 295 297 298 299 301 302
306 307 307 307 306 307 304 303 303 302 301 301 303 302 302 303 311 308 306 304 303 302 301 300 299 298 295 293 293 292 293 293 293 293 293 293 294 295 295 296 299 300 302 304
308 308 308 307 304 304 302 303 303 304 303 302 305 303 303 309 308 307 306 304 302 301 300 298 297 296 294 293 292 292 292 292 292 293 293 293 294 294 296 296 298 300 303 305
309 309 308 306 305 305 302 303 305 307 308 309 308 308 310 307 307 306 304 303 302 301 299 298 297 295 293 292 292 291 291 292 292 293 293 293 294 294 295 295 297 299 302 305
308 309 308 305 305 305 305 303 306 308 308 308 307 310 309 307 306 305 304 303 302 301 299 297 296 295 293 293 292 291 291 291 292 292 292 292 294 294 294 294 296 299 301 304
309 309 307 306 305 305 306 306 308 307 309 308 306 311 311 309 307 305 303 302 302 300 299 297 296 294 294 293 291 291 291 291 292 292 291 292 293 293 293 294 295 297 299 304
308 309 308 305 304 304 304 306 308 308 307 310 311 310 309 308 306 305 303 302 301 299 298 296 295 294 293 292 291 290 290 290 291 291 291 291 292 292 293 292 293 295 298 301
307 310 309 305 305 304 303 306 308 310 310 311 310 310 306 305 304 303 303 303 300 299 298 296 295 293 293 292 291 290 290 290 290 290 290 291 291 291 292 292 292 294 296 298
309 310 309 309 306 305 304 304 305 310 310 311 312 310 306 306 305 304 302 301 300 299 298 295 293 292 292 291 290 290 290 290 289 289 290 290 291 290 291 291 291 293 294 296
310 308 309 310 310 307 305 305 305 307 310 308 308 311 308 306 305 303 301 301 299 298 297 295 290 291 291 290 289 289 290 289 289 289 290 290 290 289 290 289 290 292 293 293
306 309 307 308 309 309 309 309 306 307 307 309 308 312 309 307 304 302 301 300 299 298 296 294 291 290 291 289 289 289 289 288 288 289 290 290 289 288 289 288 289 289 291 292
308 309 308 309 309 309 310 309 309 307 306 307 309 310 307 304 303 301 301 300 299 297 296 293 292 291 290 289 288 288 288 287 287 289 289 290 289 287 287 287 287 288 290 291
306 309 310 312 311 310 311 309 308 308 307 307 308 308 305 304 303 301 299 298 297 296 294 292 291 290 288 288 288 288 287 287 287 288 289 289 288 287 286 286 286 287 288 289
304 306 307 309 308 312 308 307 307 306 306 308 307 305 304 304 301 298 296 296 295 294 292 290 290 288 287 287 287 287 286 286 286 287 288 288 288 287 285 285 285 285 286 288
305 307 308 308 309 307 305 305 304 304 305 306 307 304 303 300 298 296 296 295 293 291 290 289 289 287 286 286 286 285 285 284 285 287 287 287 287 286 285 284 283 284 285 286
305 306 308 308 309 306 304 304 305 306 308 305 304 303 302 301 300 297 295 293 290 290 289 288 287 286 285 285 284 284 284 284 285 286 286 286 286 286 284 284 283 283 284 284
307 307 308 308 306 304 305 304 304 307 305 303 302 301 300 296 295 295 293 291 289 288 287 286 285 285 284 284 284 283 283 284 284 285 285 285 285 286 284 283 283 283 283 284
306 306 306 306 307 306 304 303 305 303 302 301 300 298 297 296 295 293 291 289 287 286 285 284 283 283 282 282 283 282 282 283 283 285 285 285 284 285 284 283 283 283 283 284
303 302 303 305 303 303 304 304 302 302 301 300 298 297 296 294 293 291 289 286 285 284 283 282 281 281 280 281 282 281 281 282 283 284 284 284 284 285 285 283 283 283 283 283
302 303 304 303 305 303 304 303 302 301 299 298 296 295 294 292 290 288 286 285 283 282 281 281 280 279 280 280 280 280 280 282 283 284 284 284 284 284 284 284 283 283 282 283
303 304 304 307 304 304 302 301 300 299 297 296 295 294 292 290 288 286 284 283 282 280 280 280 279 279 279 279 280 280 280 282 283 283 283 284 284 284 284 284 282 282 281 282
302 301 303 306 303 302 301 299 298 296 294 293 291 290 289 288 286 284 282 280 279 279 279 279 278 278 278 279 279 280 280 281 283 282 283 283 283 283 283 283 281 281 281 281
Wind_Speed
3 2 7 11 7 6 5 4 5 4 4 4 7 4 8 1 14 8 5 5 8 8 7 18 22 20 25 30 33 34 33 33 36 36 36 36 34 35 31 31 33 36 39 39
1 10 13 7 7 9 11 11 7 1 2 4 4 6 9 4 7 7 7 6 6 5 6 14 21 22 26 29 30 30 31 31 29 29 32 32 34 31 35 33 32 30 35 34
10 12 7 11 11 10 5 4 4 5 2 4 3 5 9 5 10 7 6 6 5 7 7 7 13 18 24 29 31 28 33 30 28 32 30 32 32 33 32 31 34 33 34 37
8 16 17 11 12 10 7 4 4 4 3 4 2 4 6 8 7 7 4 5 6 7 6 6 14 22 23 27 28 29 32 30 27 31 30 30 30 32 34 37 36 37 36 37
9 2 7 13 10 7 6 4 4 2 3 3 1 1 7 12 7 8 6 5 6 6 6 8 11 12 17 23 23 28 30 29 28 30 29 29 30 33 35 36 38 36 35 35
7 6 5 7 2 5 8 5 6 5 3 3 7 7 5 6 10 9 4 5 5 5 6 8 11 13 17 21 26 31 28 29 29 30 31 30 32 34 35 35 35 35 36 34
10 18 6 5 5 4 5 7 1 3 0 6 7 8 10 6 12 10 8 5 4 5 5 5 5 7 17 26 33 31 29 29 30 31 34 33 34 35 33 37 36 37 35 35
10 6 15 6 9 7 6 8 6 6 5 3 2 5 3 9 10 8 6 6 4 5 5 4 1 12 21 27 30 30 28 27 30 33 35 34 33 34 33 35 38 40 40 39
6 7 4 6 6 13 5 5 6 3 3 2 3 3 4 9 9 7 6 5 4 4 2 2 8 18 21 27 27 28 25 25 29 33 34 35 34 36 37 42 40 39 40 39
6 3 1 2 5 3 7 6 3 1 5 5 5 5 4 14 10 7 4 4 4 2 4 5 9 13 17 21 25 27 28 26 29 32 32 32 35 35 37 37 38 39 43 40
7 4 2 3 2 7 3 3 3 5 4 4 3 4 4 14 9 7 4 3 5 6 7 7 6 15 18 22 25 28 30 29 30 31 33 34 35 36 35 34 37 37 38 36
9 5 9 6 5 5 7 7 6 4 3 3 1 4 6 7 7 6 5 3 5 7 3 3 8 17 19 20 26 28 29 28 30 31 32 33 34 36 35 36 38 38 37 36
7 2 1 2 1 3 3 4 4 3 3 5 4 3 6 9 7 5 4 3 2 2 2 2 7 13 15 19 23 24 26 26 29 30 31 34 35 36 35 36 38 37 36 34
10 5 8 15 1 3 5 5 9 6 5 7 11 6 11 9 8 6 4 2 2 2 2 1 4 13 14 17 18 21 24 27 28 29 29 32 36 37 36 36 37 36 35 34
3 7 5 2 8 4 3 8 10 11 14 9 11 10 14 11 8 6 4 3 2 2 3 4 4 10 11 14 18 23 24 27 29 28 28 29 35 36 35 35 35 35 36 35
6 1 2 3 4 4 10 16 17 11 13 10 10 8 8 7 7 5 5 3 0 2 4 5 6 7 9 15 20 23 22 26 28 27 28 28 33 36 36 35 35 34 33 35
8 7 4 10 9 8 7 23 18 8 5 7 13 5 14 12 10 7 6 5 3 4 5 5 5 9 13 18 21 22 23 24 25 25 27 27 30 33 34 34 32 34 33 33
6 6 3 0 7 7 8 11 21 19 7 8 5 16 16 13 8 6 5 5 6 6 6 5 9 13 16 18 21 19 22 22 25 25 26 27 28 30 32 33 32 33 32 29
5 5 4 4 6 7 7 5 7 11 5 1 13 10 12 13 8 2 0 5 7 7 8 13 16 15 17 19 20 19 22 23 25 26 27 28 28 28 30 32 31 31 31 31
7 10 5 4 4 8 5 6 1 4 3 6 12 14 17 11 3 2 2 8 9 14 15 15 14 14 18 19 19 20 21 23 25 26 27 28 27 26 28 29 29 28 27 26
6 4 9 4 4 6 5 2 4 8 4 10 11 11 11 4 3 4 9 10 15 14 15 15 15 15 18 19 19 20 20 23 25 24 25 27 27 25 28 28 29 29 27 28
10 8 4 4 5 10 3 3 5 6 10 13 11 12 15 11 9 11 10 10 14 14 15 15 14 15 18 20 17 18 20 24 25 23 24 27 28 26 27 26 27 27 29 28
2 6 6 7 5 2 2 5 10 13 16 9 14 11 13 10 9 10 10 10 13 13 13 13 13 14 17 19 18 19 22 23 24 22 23 25 28 27 25 27 26 27 28 27
2 5 3 4 3 7 15 13 11 13 14 13 13 13 12 10 10 11 9 8 10 13 13 13 16 16 17 20 20 21 21 22 23 20 21 24 24 26 26 24 25 24 28 27
4 5 6 5 9 12 12 16 16 15 15 16 13 12 12 13 10 9 8 10 11 11 12 14 15 15 16 19 21 23 21 22 22 19 20 23 22 24 24 24 24 24 27 30
2 6 6 4 14 6 12 16 17 17 15 15 16 13 13 15 10 14 11 12 10 10 13 14 15 15 17 20 21 22 23 22 19 18 19 21 21 22 21 21 23 20 23 26
Wind_Direction
201 138 220 224 220 246 286 301 264 278 181 110 190 222 256 137 105 115 112 109 106 94 103 51 44 32 16 9 5 360 356 352 349 346 341 333 324 320 313 309 304 305 300 293
350 240 232 224 234 243 256 248 247 301 110 112 173 236 263 344 137 141 137 105 90 83 57 45 36 22 16 7 1 352 354 350 345 341 332 325 318 314 309 308 305 304 301 299
204 234 223 225 250 239 239 201 209 196 25 359 89 325 262 42 98 106 83 99 82 73 56 42 37 23 14 6 358 351 352 349 344 337 330 325 318 315 314 310 307 305 300 296
237 243 246 251 235 195 208 188 153 107 99 191 115 260 263 144 123 107 100 82 72 58 46 37 27 21 10 357 350 353 354 349 339 339 332 326 315 308 306 304 302 300 298 289
224 205 206 229 230 178 217 148 132 119 104 61 277 317 258 131 161 157 163 123 97 83 57 39 44 21 1 352 353 357 354 343 338 336 330 321 310 306 304 302 301 298 292 286
223 264 169 211 148 178 146 83 40 43 86 271 193 184 240 190 181 155 151 120 91 81 63 49 34 13 356 355 2 0 350 340 338 333 329 323 313 309 308 303 299 296 295 287
242 245 244 175 106 15 102 99 293 316 239 235 223 209 252 103 127 145 150 134 104 79 53 63 30 4 355 6 6 357 344 336 334 333 333 324 319 314 313 310 303 301 292 284
211 284 206 186 173 161 194 160 160 214 206 239 187 231 247 109 120 125 137 127 93 70 40 66 39 16 13 8 2 349 339 330 335 335 328 325 319 316 315 312 302 300 291 285
191 241 236 186 154 152 197 193 168 81 283 54 203 102 91 140 142 146 147 135 113 95 91 102 35 17 12 10 358 343 334 333 336 333 327 325 321 322 318 319 308 304 298 293
208 287 319 126 96 66 148 154 98 357 196 223 240 201 225 175 165 157 157 154 147 108 52 34 32 7 12 11 357 346 346 339 333 329 331 324 323 320 320 319 312 310 308 303
179 126 319 76 189 162 130 161 185 168 170 188 193 247 226 164 157 156 162 61 68 32 33 18 341 7 17 14 1 353 350 339 335 332 333 330 326 325 323 323 319 315 317 318
191 159 222 190 217 199 199 195 167 153 199 248 161 243 106 119 141 148 148 62 66 39 42 330 352 8 20 12 4 353 346 339 337 334 335 332 331 331 330 331 328 329 332 333
166 205 185 194 70 346 207 207 189 147 111 210 182 227 140 145 145 149 121 53 85 66 72 336 347 3 21 12 3 349 344 344 341 340 339 336 337 336 334 334 335 337 338 336
114 132 211 232 160 145 187 201 221 186 232 235 240 157 183 176 167 156 152 144 115 68 56 0 325 9 26 13 355 347 349 349 344 344 342 339 338 339 336 338 338 340 343 345
71 167 163 171 119 77 337 319 279 217 225 212 223 202 194 184 178 167 173 132 40 37 28 38 356 1 23 5 1 357 358 350 348 347 347 343 339 342 338 342 340 347 348 350
335 295 104 245 209 242 244 236 260 257 233 248 247 201 173 139 126 155 165 132 277 48 44 38 12 24 19 11 5 359 359 350 348 345 343 346 345 344 343 341 343 346 353 352
178 159 158 254 257 266 271 237 231 248 205 197 226 170 160 158 165 162 161 162 138 80 66 36 5 49 24 16 7 3 356 350 347 343 346 347 348 345 347 342 345 349 350 350
159 125 98 293 108 215 254 198 203 216 200 161 114 150 162 154 131 129 164 142 111 87 71 41 38 45 31 18 9 4 357 353 349 348 349 350 349 349 349 348 348 349 349 352
135 115 138 188 212 310 299 234 191 190 180 182 147 135 128 126 115 74 116 75 96 89 66 49 53 44 30 20 10 6 0 355 353 353 350 350 351 353 352 353 348 349 351 353
105 113 173 158 206 219 242 262 231 73 195 138 147 144 148 159 147 208 13 92 81 72 58 51 50 43 31 20 15 8 358 357 355 352 349 347 351 356 355 357 351 352 356 355
144 149 202 196 231 274 249 256 128 200 196 118 129 135 140 130 152 144 99 88 82 70 56 46 42 38 26 17 16 7 357 356 348 349 351 352 353 356 360 359 360 0 1 4
173 163 179 183 225 257 232 18 170 133 109 116 110 112 105 101 93 96 94 84 71 57 47 41 34 29 21 14 12 4 358 350 348 349 353 355 357 357 2 6 2 7 11 11
185 176 170 181 210 219 15 107 113 130 117 122 115 112 108 99 91 100 90 78 67 58 46 40 34 23 16 10 10 1 352 350 351 352 352 355 358 358 1 11 5 6 12 16
123 142 107 114 39 105 106 91 106 109 112 114 114 115 110 106 95 89 84 73 62 46 35 34 26 21 12 6 4 1 355 352 351 355 356 359 357 359 4 5 10 10 12 13
188 121 129 78 96 88 102 106 111 110 110 107 104 108 106 101 92 100 87 74 59 43 37 41 29 19 10 4 4 8 0 358 356 358 2 5 2 2 5 14 18 18 20 22
197 162 157 184 164 122 143 125 125 121 117 114 109 96 92 107 109 101 88 80 65 53 46 40 31 20 9 10 11 14 10 5 9 5 8 12 8 6 9 13 14 30 20 23